OBJECT F, 68797

Orbit data source: Space-Track

You're viewing an Uncataloged Satellite

Recently launched and/or uncataloged satellites may have evolving metadata. Metadata may include but not limited to: Owner, Maufacturer, Bus, Motor, and Mission.

OBJECT F, 68797 is a Japanese satellite in SSO that was launched on Thu, 23 Apr 2026 UTC via an ELECTRON launch vehicle from the Rocket Lab Launch Complex (RLLC). Unknown objects in Earth's orbit typically refer to objects detected orbiting the Earth but have not yet been identified or cataloged. These objects could be anything from previously untracked satellites, spent rocket stages, debris from satellite collisions, or even natural meteoroids temporarily captured by Earth's gravity.

Loading next visibility...
Identifier
68797, 2026-088F
Orbit
SSO
Country
Flag of JPJP / JPN
Related business
None
Manufacturer
Unknown
Mission
Operational spacecraft
Bus & Motor
Unknown
Mass
Unknown
Launch date (UTC)
2026-04-23 (2 months ago)
Launch vehicle
ELECTRON
Launch site
Rocket Lab Launch Complex (RLLC)
Object type
Unknown
Shape & HBR
Unknown shape, 1.1 m
Radar Cross Section
Medium (>0.1 m² and <1 m²)

Expand to show TLE details & history
Last TLE update: 14 hours ago

TLE from 14 hours ago
0 OBJECT F
1 68797U 26088F   26171.40713634  .00004837  00000-0  31169-3 0  9991
2 68797  97.5070 320.7288 0016850  70.1739 290.1304 15.08674988  8782
Epoch: 2026-06-20T09:46Z
TLE epoch observation values (Epoch: 2026-06-20T09:46:16.579Z)
Latitude
-0.00008°
Longitude
-94.46247°
Altitude
539.324 km
Speed
7.595 km/s
True Right ascension
21h 22m 54s
True Declination
0° 00' 00"
Sunlit
Object was in full shadow at epoch
Visualization orbit readout
Latitude
Unknown
Longitude
Unknown
Altitude
Unknown
Speed
Unknown
Apparent Right ascension
Unknown
Apparent Declination
Unknown
Sunlit
N/A
Visualization observer readout
Local Sidereal Time
10:19:48
Azimuth
Unknown
Elevation
Unknown
Doppler factor
Unknown
Orbital elements
Apogee altitude
548.885 km
Perigee altitude
525.581 km
Semi-major axis
6,915.37 km
Eccentricity
0.00169
Inclination
97.507°
RAAN
320.7288°
Arg. of periapsis
70.1739°
True anomaly
289.94898°
Mean anomaly
290.1304°
Eccentric anomaly
290.0397°
Mean motion
3.77416 °/min
Orbital period
95.39 mins
BSTAR
0.00031169
Loading maneuver chart data...
Computing Atmospheric mass density...
Loading historical data...
Loading historical data...
Loading historical data...
Loading historical data...
Loading historical data...
Loading historical data...
Loading historical data...

Documentation

Showing up to 5 results
|